Tracking 30261 objects as of 18-Feb-2025
HD Live streaming from Space Station
objects crossing your sky now

STARLINK-5165

Track STARLINK-5165 now!
10-day predictions
STARLINK-5165 is classified as:


NORAD ID: 54081
Int'l Code: 2022-136AG
Perigee: 546.0 km
Apogee: 547.7 km
Inclination: 53.2 °
Period: 95.4 minutes
Semi major axis: 6917 km
RCS: Unknown
Launch date: October 20, 2022
Source: United States (US)
Launch site: AIR FORCE EASTERN TEST RANGE (AFETR)
Your satellite tracking list
Your tracking list is empty




NASA's NSSDC Master Catalog

Two Line Element Set (TLE):
1 54081U 22136AG  25048.95968683  .00001386  00000-0  10512-3 0  9995
2 54081  53.2161 261.1922 0001257  87.3576 272.7560 15.08841933129386
Source of the keplerian elements: AFSPC